Date String (YYYY-MM-DD hh:mm:ss) UTC,Instrument flags,absolute air pressure of the measurement (hPa),sample flow rate (lpm),inlet stack bypass flow (lpm),air temperature of the measurement (°C),ambient temperature measured by the external sensor (°C),aerosol sample conditioner tube jacket temperature (°C),OPC LED temperature (°C),internal box temperature (°C),relative humidity of the measurement (%),span deviation,mass concentration of particles derived from Lorenz-Mie calculation of OPC scattering (μg/m³),mass concentration of particles derived from Lorenz-Mie calculation of OPC scattering (μg/m³),mass concentration of particles derived from Lorenz-Mie calculation of OPC scattering (μg/m³)
DateTimeUTC,F1_M11,P_M11,Q1_M11,Q2_M11,T1_M11,T2_M11,T3_M11,T4_M11,T5_M11,U1_M11,ZSPAN_M11,X2_M11,X0_M11,X1_M11
2023-12-14 00:00:00,SystemResetWarning,0837.2,5.00,000.00,018.9,018.0,000.0,027.1,020.1,22.1,0001.0,0016.16,0019.22,0015.53
2023-12-14 00:01:00,SystemResetWarning,0837.2,5.00,000.00,018.9,018.0,000.0,027.1,020.1,22.2,0000.9,0016.21,0019.37,0015.53
2023-12-14 00:02:00,SystemResetWarning,0837.2,4.99,000.00,018.9,018.0,000.0,027.1,020.1,22.2,0000.7,0016.18,0019.31,0015.52
2023-12-14 00:03:00,SystemResetWarning,0837.2,4.99,000.00,018.9,018.0,000.0,027.1,020.1,22.2,0000.6,0016.16,0019.11,0015.50
2023-12-14 00:04:00,SystemResetWarning,0837.2,5.00,000.00,018.9,018.0,000.0,027.1,020.1,22.1,0000.5,0016.17,0019.29,0015.49
2023-12-14 00:05:00,SystemResetWarning,0837.2,5.01,000.00,018.9,018.0,000.0,027.1,020.1,22.1,0000.4,0016.13,0019.28,0015.45
2023-12-14 00:06:00,SystemResetWarning,0837.2,5.00,000.00,018.9,018.0,000.0,027.1,020.1,22.1,0000.6,0016.16,0019.31,0015.45
2023-12-14 00:07:00,SystemResetWarning,0837.2,5.01,000.00,018.9,018.0,000.0,027.1,020.1,22.0,0000.5,0016.21,0019.54,0015.49
2023-12-14 00:08:00,SystemResetWarning,0837.2,5.01,000.00,018.9,018.0,000.0,027.1,020.1,22.0,0000.3,0016.21,0019.48,0015.49
2023-12-14 00:09:00,SystemResetWarning,0837.2,5.00,000.00,018.9,018.0,000.0,027.1,020.1,22.2,0000.6,0016.18,0019.51,0015.50
2023-12-14 00:10:00,SystemResetWarning,0837.2,5.00,000.00,018.9,018.0,000.0,027.1,020.1,22.3,0000.5,0016.18,0019.68,0015.50
2023-12-14 00:11:00,SystemResetWarning,0837.2,5.00,000.00,018.9,018.0,000.0,027.1,020.1,22.4,0000.3,0016.17,0019.77,0015.48
2023-12-14 00:12:00,SystemResetWarning,0837.2,5.00,000.00,018.9,018.0,000.0,027.1,020.1,22.5,0000.5,0016.16,0020.22,0015.50
2023-12-14 00:13:00,SystemResetWarning,0837.2,5.00,000.00,018.9,018.0,000.0,027.1,020.1,22.5,0000.6,0016.19,0020.22,0015.53
2023-12-14 00:14:00,SystemResetWarning,0837.2,5.00,000.00,018.9,018.0,000.0,027.1,020.1,22.5,0000.5,0016.24,0020.40,0015.54
2023-12-14 00:15:00,SystemResetWarning,0837.2,4.99,000.00,018.9,018.0,000.0,027.1,020.1,22.6,0000.5,0016.27,0020.32,0015.59
2023-12-14 00:16:00,SystemResetWarning,0837.2,5.00,000.00,018.9,018.0,000.0,027.1,020.1,22.6,0000.4,0016.32,0020.30,0015.64
2023-12-14 00:17:00,SystemResetWarning,0837.2,4.99,000.00,018.9,018.0,000.0,027.1,020.1,22.6,0000.1,0016.34,0020.29,0015.67
2023-12-14 00:18:00,SystemResetWarning,0837.2,5.00,000.00,018.9,018.0,000.0,027.1,020.2,22.6,0000.1,0016.34,0020.19,0015.67
2023-12-14 00:19:00,SystemResetWarning,0837.2,5.00,000.00,018.9,018.0,000.0,027.1,020.2,22.6,0000.1,0016.31,0020.47,0015.64
2023-12-14 00:20:00,SystemResetWarning,0837.2,5.00,000.00,018.9,018.0,000.0,027.2,020.2,22.6,0000.2,0016.25,0020.37,0015.62
2023-12-14 00:21:00,SystemResetWarning,0837.2,5.00,000.00,018.9,018.0,000.0,027.2,020.2,22.6,0000.1,0016.22,0020.16,0015.58
2023-12-14 00:22:00,SystemResetWarning,0837.3,5.00,000.00,018.9,018.0,000.0,027.2,020.1,22.6,0000.1,0016.24,0020.18,0015.57
2023-12-14 00:23:00,SystemResetWarning,0837.2,5.00,000.00,018.9,018.0,000.0,027.2,020.1,22.6,0000.2,0016.18,0020.00,0015.53
2023-12-14 00:24:00,SystemResetWarning,0837.3,5.00,000.00,018.9,018.0,000.0,027.2,020.1,22.6,-000.1,0016.06,0020.63,0015.43
2023-12-14 00:25:00,SystemResetWarning,0837.2,5.01,000.00,018.9,018.0,000.0,027.2,020.1,22.5,-000.1,0015.98,0020.56,0015.37
2023-12-14 00:26:00,SystemResetWarning,0837.3,5.01,000.00,018.9,018.0,000.0,027.2,020.1,22.5,-000.3,0015.92,0020.47,0015.31
2023-12-14 00:27:00,SystemResetWarning,0837.2,5.01,000.00,018.9,018.0,000.0,027.2,020.1,22.5,-000.4,0015.82,0020.28,0015.23
2023-12-14 00:28:00,SystemResetWarning,0837.2,5.00,000.00,018.9,018.0,000.0,027.2,020.2,22.4,-000.2,0015.75,0020.15,0015.17
2023-12-14 00:29:00,SystemResetWarning,0837.2,5.00,000.00,018.9,018.0,000.0,027.2,020.2,22.4,-000.1,0015.72,0020.13,0015.13
2023-12-14 00:30:00,SystemResetWarning,0837.2,5.00,000.00,018.9,018.0,000.0,027.2,020.1,22.5,-000.0,0015.70,0019.86,0015.11
2023-12-14 00:31:00,SystemResetWarning,0837.2,5.00,000.00,018.9,018.0,000.0,027.2,020.1,22.6,-000.4,0015.75,0020.09,0015.12
2023-12-14 00:32:00,SystemResetWarning,0837.2,5.00,000.00,018.9,018.0,000.0,027.2,020.1,22.5,-000.5,0015.79,0020.10,0015.15
2023-12-14 00:33:00,SystemResetWarning,0837.2,4.99,000.00,018.9,018.0,000.0,027.2,020.1,22.5,-000.3,0015.78,0020.01,0015.14
2023-12-14 00:34:00,SystemResetWarning,0837.2,5.00,000.00,018.9,018.0,000.0,027.2,020.1,22.5,-000.3,0015.79,0019.76,0015.15
2023-12-14 00:35:00,SystemResetWarning,0837.2,5.01,000.00,018.9,018.0,000.0,027.2,020.1,22.5,-000.2,0015.84,0019.08,0015.18
2023-12-14 00:36:00,SystemResetWarning,0837.2,5.00,000.00,018.9,018.0,000.0,027.2,020.1,22.5,-000.1,0015.91,0019.03,0015.22
2023-12-14 00:37:00,SystemResetWarning,0837.2,5.00,000.00,018.9,018.0,000.0,027.2,020.1,22.6,0000.2,0015.88,0019.00,0015.22
2023-12-14 00:38:00,SystemResetWarning,0837.2,5.00,000.00,018.9,018.0,000.0,027.2,020.1,22.6,0000.3,0015.87,0018.99,0015.21
2023-12-14 00:39:00,SystemResetWarning,0837.2,5.00,000.00,018.9,018.0,000.0,027.2,020.1,22.6,0000.4,0015.88,0019.16,0015.20
2023-12-14 00:40:00,SystemResetWarning,0837.2,4.99,000.00,018.9,018.0,000.0,027.2,020.1,22.5,0000.4,0015.91,0019.21,0015.24
2023-12-14 00:41:00,SystemResetWarning,0837.2,4.99,000.00,018.9,018.0,000.0,027.2,020.1,22.5,0000.4,0015.94,0019.43,0015.26
2023-12-14 00:42:00,SystemResetWarning,0837.2,5.00,000.00,018.9,018.0,000.0,027.2,020.1,22.5,0000.3,0015.90,0019.32,0015.26
2023-12-14 00:43:00,SystemResetWarning,0837.2,5.00,000.00,018.9,018.0,000.0,027.2,020.1,22.4,0000.4,0015.90,0019.36,0015.25
2023-12-14 00:44:00,SystemResetWarning,0837.2,5.00,000.00,018.9,018.0,000.0,027.2,020.1,22.4,0000.6,0015.92,0019.40,0015.26
2023-12-14 00:45:00,SystemResetWarning,0837.2,5.00,000.00,018.9,018.0,000.0,027.2,020.0,22.3,0000.7,0015.95,0019.52,0015.29
2023-12-14 00:46:00,SystemResetWarning,0837.3,5.01,000.00,018.9,018.0,000.0,027.2,020.1,22.2,0000.5,0015.98,0019.57,0015.32
2023-12-14 00:47:00,SystemResetWarning,0837.2,5.00,000.00,018.9,018.0,000.0,027.2,020.1,22.1,0000.3,0015.98,0019.45,0015.32
2023-12-14 00:48:00,SystemResetWarning,0837.2,5.00,000.00,018.9,018.0,000.0,027.2,020.1,22.1,0000.1,0016.02,0019.55,0015.34
2023-12-14 00:49:00,SystemResetWarning,0837.2,5.01,000.00,018.9,018.0,000.0,027.2,020.1,22.0,0000.1,0016.04,0019.57,0015.36
2023-12-14 00:50:00,SystemResetWarning,0837.3,5.00,000.00,018.9,018.0,000.0,027.2,020.1,21.9,-000.0,0016.05,0019.47,0015.38
2023-12-14 00:51:00,SystemResetWarning,0837.2,5.00,000.00,018.9,018.0,000.0,027.2,020.1,21.9,-000.0,0016.06,0019.50,0015.39
2023-12-14 00:52:00,SystemResetWarning,0837.2,5.00,000.00,018.9,018.0,000.0,027.2,020.1,22.0,-000.2,0016.07,0019.35,0015.42
2023-12-14 00:53:00,SystemResetWarning,0837.2,5.00,000.00,018.9,018.0,000.0,027.2,020.1,22.0,0000.2,0016.11,0019.10,0015.47
2023-12-14 00:54:00,SystemResetWarning,0837.2,5.00,000.00,018.9,018.0,000.0,027.2,020.1,21.9,0000.3,0016.15,0019.14,0015.52
2023-12-14 00:55:00,SystemResetWarning,0837.2,5.00,000.00,018.9,018.0,000.0,027.2,020.1,22.0,0000.1,0016.15,0019.14,0015.55
2023-12-14 00:56:00,SystemResetWarning,0837.3,4.99,000.00,018.9,018.0,000.0,027.2,020.1,21.9,0000.2,0016.13,0018.97,0015.56
2023-12-14 00:57:00,SystemResetWarning,0837.2,5.00,000.00,018.9,018.0,000.0,027.2,020.1,21.9,0000.2,0016.12,0018.95,0015.57
2023-12-14 00:58:00,SystemResetWarning,0837.2,4.99,000.00,018.9,018.0,000.0,027.2,020.1,21.9,0000.4,0016.13,0019.14,0015.60
2023-12-14 00:59:00,SystemResetWarning,0837.2,5.00,000.00,018.9,018.0,000.0,027.2,020.1,21.9,0000.7,0016.15,0019.37,0015.63
